Regional Weather Roundup
Issued by NWS

Home | Current Version | Previous Version | Text Only | Print | Product List | Glossary On
Versions: 1 2 3 4 5 6 7 8 9 10 11 12 13 14 15 16 17 18 19 20 21 22 23 24 25 26 27 28
000
ASCA42 TJSJ 241610
RWRPR
PUERTO RICO/U.S. VIRGIN ISLANDS HOURLY WEATHER ROUNDUP
NATIONAL WEATHER SERVICE SAN JUAN PR
1200 PM AST WED MAY 24 2017

PRZ001>002-007>008-010-241700-
PUERTO RICO

CITY           SKY/WX    TMP DP  RH WIND       PRES   REMARKS
SAN JUAN LMM   MOSUNNY   90  72  55 E9G20     30.06F HX  96
AGUADILLA      MOSUNNY   88  75  66 NE12      30.08F HX  97
CEIBA          CLOUDY    88  77  70 E15       30.10F HX 100
$$

VIZ001>002-241700-
U.S. VIRGIN ISLANDS

CITY           SKY/WX    TMP DP  RH WIND       PRES   REMARKS
CHARLOTTE AMA  MOSUNNY   88  75  66 SE15      30.08S HX  97
CHRISTIANSTED  MOSUNNY   86  75  70 E16       30.09S HX  95
$$

HOURLY WEATHER ROUNDUP FOR THE NEWS MEDIA

CITY           SKY/WX    TMP DP  RH WIND       PRES   REMARKS
ORLANDO        PTSUNNY   88  71  57 SW20G30   29.75S HX  94
NEW YORK       PTSUNNY   66  57  72 NE13      29.76F
NEWARK         PTSUNNY   67  54  63 N8        29.75F
CHICAGO        CLOUDY    56  50  80 NE18      29.57F
HARTFORD       CLOUDY    64  51  62 E7G16     29.77R
BOSTON         CLOUDY    62  54  74 NE6       29.80R
DALLAS         FAIR      70  43  37 NW14      29.86S
PHILADELPHIA   PTSUNNY   66  54  65 E13       29.75S
LOS ANGELES    CLOUDY    59  56  89 SW7       29.90S FOG
WASHINGTON DC  CLOUDY    63  54  72 SE8       29.74S



USA.gov is the U.S. government's official web portal to all federal, state and local government web resources and services.